EW5562 Weather Reports


time (UTC)temp
C
wind
direction
speed
KPH
gust
KPH
rain 1hr
cm
rain 24hr
cm
rain mn
cm
humidity
%
barometer
mb
20260504044511 5 306 6.4 8.0 0.00 3.43 0.00 87 1016.0
20260504043011 3 312 1.6 8.0 0.00 3.56 0.00 90 1015.9
20260504034510 2 214 1.6 6.4 0.00 3.63 0.00 89 1015.7
20260504031509 3 293 4.8 6.4 0.00 3.63 0.00 91 1015.5
20260504024509 2 0 4.8 9.7 0.00 3.63 0.00 91 1015.4
20260504021509 3 329 4.8 4.8 0.00 3.63 0.00 90 1015.5
20260504014509 3 216 3.2 4.8 0.00 3.63 0.00 89 1015.5
20260504011506 4 276 0.0 4.8 0.00 3.63 0.00 87 1015.5
20260504004507 4 258 4.8 6.4 0.00 3.63 0.00 89 1015.3
20260504001506 4 228 6.4 8.0 0.00 3.63 0.00 87 1015.4
20260503234506 5 210 3.2 8.0 0.00 3.63 0.00 83 1015.3
20260503231506 6 321 3.2 9.7 0.00 3.63 0.00 79 1015.5
20260503230006 6 320 4.8 14.5 0.00 3.63 0.00 79 1015.4
20260503221506 6 336 4.8 14.5 0.00 3.63 0.00 80 1015.4
20260503220005 7 271 9.7 17.7 0.00 3.63 0.00 76 1015.4
20260503211504 7 282 9.7 11.3 0.00 3.63 0.00 76 1015.5
20260503204503 7 278 3.2 8.0 0.00 3.63 1.07 75 1015.5
20260503201503 7 281 4.8 6.4 0.00 3.63 1.07 77 1015.7
20260503200004 7 245 3.2 8.0 0.00 3.63 1.07 78 1015.8
20260503193003 8 259 6.4 6.4 0.00 3.63 1.07 76 1015.8
20260503184500 7 248 4.8 11.3 0.00 3.63 1.07 82 1015.7
20260503181502 8 209 8.0 9.7 0.00 3.63 1.07 79 1015.5
20260503180001 11 243 4.8 8.0 0.00 3.63 1.07 63 1015.0
20260503171459 11 331 4.8 14.5 0.00 3.63 1.07 61 1014.6
20260503081452 7 344 12.9 20.9 0.28 0.51 0.51 89 1015.3